Location: Luxembourg
(49.6117°N, 6.1300°E)
Time: 16:38:54
(UTC+01:00)

AO-7 - Visible Passes

Search period start: 15 November 2019 00:00
Search period end: 25 November 2019 00:00
Orbit: 1439 x 1459 km, 101.8° (Epoch: 14 November)

Date Brightness Start Highest point End Pass type
(mag) Time Alt. Az. Time Alt. Az. Time Alt. Az.
15 Nov ? 03:31:07 10° NNE 03:38:40 37° E 03:46:11 10° SSE visible
15 Nov ? 05:23:43 10° NNE 05:31:53 64° WNW 05:40:03 10° SW visible
16 Nov ? 02:32:55 10° NE 02:37:41 16° E 02:42:26 10° ESE visible
16 Nov ? 04:23:41 10° NNE 04:32:01 69° ESE 04:40:18 10° S visible
16 Nov ? 06:16:58 10° N 06:24:18 37° NW 06:31:39 10° WSW visible
16 Nov ? 17:25:55 10° WSW 17:30:09 15° W 17:34:25 10° NW visible
17 Nov ? 03:24:12 10° NNE 03:31:34 34° E 03:38:54 10° SSE visible
17 Nov ? 05:16:40 10° NNE 05:24:54 69° WNW 05:33:08 10° SW visible
17 Nov ? 07:10:24 10° N 07:16:18 22° NW 07:22:13 10° W visible
18 Nov ? 02:26:22 10° NE 02:30:30 14° E 02:34:37 10° ESE visible
18 Nov ? 04:16:41 10° NNE 04:24:58 64° ESE 04:33:13 10° S visible
18 Nov ? 06:09:54 10° N 06:17:23 39° NW 06:24:52 10° WSW visible
18 Nov ? 17:18:08 10° WSW 17:22:59 16° W 17:27:50 10° NW visible
19 Nov ? 03:17:19 10° NE 03:24:28 31° E 03:31:35 10° SSE visible
19 Nov ? 05:09:38 10° NNE 05:17:55 74° WNW 05:26:13 10° SSW visible
19 Nov ? 07:03:18 10° N 07:09:26 24° NW 07:15:35 10° W visible
20 Nov ? 02:19:59 10° ENE 02:23:19 13° E 02:26:37 10° ESE visible
20 Nov ? 04:09:42 10° NNE 04:17:56 59° ESE 04:26:07 10° S visible
20 Nov ? 06:02:50 10° NNE 06:10:27 42° NW 06:18:05 10° WSW visible
20 Nov ? 17:10:28 10° SW 17:15:48 18° W 17:21:11 10° NW visible
21 Nov ? 03:10:26 10° NE 03:17:21 28° E 03:24:13 10° SSE visible
21 Nov ? 05:02:36 10° NNE 05:10:56 79° WNW 05:19:16 10° SSW visible
21 Nov ? 06:56:13 10° N 07:02:34 25° NW 07:08:56 10° W visible
22 Nov ? 02:13:57 10° ENE 02:16:07 11° E 02:18:16 10° E visible
22 Nov ? 04:02:44 10° NNE 04:10:53 54° ESE 04:18:59 10° S visible
22 Nov ? 05:55:46 10° NNE 06:03:31 46° WNW 06:11:17 10° SW visible
23 Nov ? 03:03:35 10° NE 03:10:14 25° E 03:16:50 10° SE visible
23 Nov ? 04:55:34 10° NNE 05:03:56 85° WNW 05:12:18 10° SSW visible
23 Nov ? 06:49:08 10° N 06:55:41 27° NW 07:02:16 10° W visible
24 Nov ? 03:55:45 10° NNE 04:03:48 50° E 04:11:50 10° S visible
24 Nov ? 05:48:43 10° NNE 05:56:35 49° WNW 06:04:28 10° SW visible
